Weather History for Clearfield, PA

Change the Weather History Date:

Sunday, November 25, 2012

  Actual Average (KDUJ) Record (KDUJ)
Temperature  
Mean Temperature 28 °F 36 °F  
Max Temperature 32 °F 43 °F 61 °F (1979)
Min Temperature 25 °F 29 °F 9 °F (2005)
Degree Days  
Heating Degree Days 36 30  
Month to date heating degree days 622  
Since 1 July heating degree days 1365  
Cooling Degree Days 0 0  
Month to date cooling degree days 0  
Year to date cooling degree days 362  
Moisture  
Dew Point 21 °F    
Average Humidity 74    
Maximum Humidity 93    
Minimum Humidity 61    
Precipitation  
Precipitation 0.01 in 0.12 in 1.01 in (2010)
Month to date precipitation 3.07  
Sea Level Pressure  
Sea Level Pressure 29.95 in    
Wind  
Wind Speed 9 mph (SW)    
Max Wind Speed 14 mph    
Max Gust Speed 22 mph    
Visibility 8 miles    
Events Snow    
T = Trace of Precipitation, MM = Missing Value Source: NWS Daily Summary

Daily Weather History Graph

Daily Weather History Graph

Search for Another Location

Airport:

Trip Planner

Search our weather history database for the weather conditions in past years. The results will help you decide how hot, cold, wet, or windy it might be!

Date:

Astronomy

Nov. 25, 2012 Rise Set
Actual Time 7:13 AM EST 4:47 PM EST
Civil Twilight 6:43 AM EST 5:18 PM EST
Nautical Twilight 6:09 AM EST 5:52 PM EST
Astronomical Twilight 5:36 AM EST 6:25 PM EST
Moon 3:04 PM EST (11/25) 4:24 AM EST (11/25)
Length of Visible Light 10h 35m
Length of Day
9h 34m
Waxing Gibbous, 93% of the Moon is Illuminated
Nov 25
Waxing Gibbous
Nov 28
Full
Dec 6
Last Quarter
Dec 13
New
Dec 20
First Quarter

Hourly Weather History & Observations

Time (EST) Temp. Windchill Dew Point Humidity Pressure Visibility Wind Dir Wind Speed Gust Speed Precip Events Conditions
12:54 AM 28.0 °F 18.6 °F 19.9 °F 72% 29.99 in 10.0 mi WSW 10.4 mph 17.3 mph N/A   Overcast
1:54 AM 28.0 °F 20.0 °F 19.9 °F 72% 30.00 in 10.0 mi WSW 8.1 mph - N/A   Overcast
2:11 AM 28.4 °F 21.2 °F 19.4 °F 69% 29.95 in 10.0 mi West 6.9 mph - N/A   Overcast
2:38 AM 28.4 °F 19.1 °F 19.4 °F 69% 29.95 in 10.0 mi West 10.4 mph - N/A   Overcast
2:54 AM 28.0 °F 20.0 °F 19.9 °F 72% 30.01 in 10.0 mi West 8.1 mph - N/A   Overcast
3:54 AM 27.0 °F 18.0 °F 19.9 °F 75% 30.00 in 10.0 mi WSW 9.2 mph - N/A   Overcast
4:23 AM 26.6 °F 17.5 °F 19.4 °F 74% 29.95 in 10.0 mi WSW 9.2 mph - N/A   Overcast
4:54 AM 27.0 °F 18.0 °F 19.0 °F 72% 29.99 in 10.0 mi WSW 9.2 mph 16.1 mph N/A   Overcast
5:34 AM 28.4 °F 19.7 °F 17.6 °F 64% 29.95 in 10.0 mi WSW 9.2 mph - N/A   Overcast
5:50 AM 26.6 °F 18.2 °F 19.4 °F 74% 29.95 in 10.0 mi West 8.1 mph - N/A   Overcast
5:54 AM 28.0 °F 17.0 °F 19.0 °F 69% 30.00 in 10.0 mi WSW 13.8 mph 19.6 mph N/A   Overcast
7:54 AM 27.0 °F 16.7 °F 18.0 °F 69% 29.99 in 10.0 mi WSW 11.5 mph - N/A   Overcast
8:33 AM 28.4 °F 17.5 °F 17.6 °F 64% 29.95 in 10.0 mi WSW 13.8 mph 21.9 mph N/A   Overcast
8:54 AM 28.0 °F 17.5 °F 18.0 °F 66% 30.00 in 10.0 mi SW 12.7 mph 21.9 mph N/A   Overcast
9:54 AM 27.0 °F 18.0 °F 21.0 °F 78% 30.00 in 5.0 mi SW 9.2 mph - 0.00 in   Haze
10:28 AM 28.4 °F 19.7 °F 21.2 °F 74% 29.93 in 1.8 mi SW 9.2 mph - 0.00 in Snow Light Snow
10:47 AM 26.6 °F 16.8 °F 21.2 °F 80% 29.93 in 2.0 mi SW 10.4 mph - 0.00 in Snow Light Snow
10:54 AM 27.0 °F 16.7 °F 21.9 °F 81% 29.99 in 2.0 mi SW 11.5 mph - 0.00 in Snow Light Snow
11:06 AM 26.6 °F 18.2 °F 23.0 °F 86% 29.92 in 1.0 mi SW 8.1 mph - 0.00 in Snow Light Snow
11:13 AM 26.6 °F 16.8 °F 24.8 °F 93% 29.92 in 0.8 mi SW 10.4 mph - 0.00 in Snow Light Snow
11:30 AM 26.6 °F 17.5 °F 24.8 °F 93% 29.90 in 1.2 mi SW 9.2 mph - 0.01 in Snow Light Snow
11:54 AM 27.0 °F 18.0 °F 24.1 °F 89% 29.94 in 1.2 mi SW 9.2 mph - 0.01 in Snow Light Snow
12:03 PM 26.6 °F 17.5 °F 24.8 °F 93% 29.89 in 3.0 mi SSW 9.2 mph - 0.00 in Snow Light Snow
12:13 PM 28.4 °F 20.4 °F 24.8 °F 86% 29.88 in 8.0 mi SSW 8.1 mph - 0.00 in   Overcast
12:54 PM 28.0 °F 20.0 °F 21.9 °F 78% 29.92 in 10.0 mi SW 8.1 mph 18.4 mph 0.00 in   Overcast
1:54 PM 30.0 °F 20.5 °F 21.9 °F 72% 29.90 in 10.0 mi SW 11.5 mph 16.1 mph N/A   Overcast
2:54 PM 30.9 °F 23.5 °F 21.0 °F 67% 29.88 in 10.0 mi SW 8.1 mph - N/A   Overcast
3:54 PM 32.0 °F 25.6 °F 21.0 °F 64% 29.88 in 10.0 mi SW 6.9 mph - N/A   Overcast
4:54 PM 30.9 °F 27.5 °F 19.9 °F 64% 29.89 in 10.0 mi SW 3.5 mph - N/A   Clear
5:54 PM 30.9 °F 27.5 °F 19.0 °F 61% 29.91 in 10.0 mi SW 3.5 mph - N/A   Clear
6:54 PM 25.0 °F - 19.9 °F 81% 29.94 in 10.0 mi Calm Calm - N/A   Clear
7:54 PM 28.9 °F 25.2 °F 21.0 °F 72% 29.95 in 10.0 mi SW 3.5 mph - N/A   Overcast
8:54 PM 28.9 °F 23.9 °F 21.0 °F 72% 29.95 in 10.0 mi SSW 4.6 mph - N/A   Overcast
9:54 PM 30.9 °F 25.2 °F 19.9 °F 64% 29.95 in 10.0 mi SSW 5.8 mph - N/A   Overcast
10:54 PM 30.9 °F 24.3 °F 21.0 °F 67% 29.95 in 10.0 mi SSW 6.9 mph - N/A   Overcast
11:54 PM 30.9 °F 26.2 °F 21.0 °F 67% 29.96 in 10.0 mi South 4.6 mph - N/A   Overcast